• In Moldova, Republic
  • List of Countries
  • For 7 days
  • Water Temperature
  • Satellite Maps
  • Weather Map
  • Weather Widgets
  • user-avatar
    Login

    Hourly Weather Shaki

    Today, 30 March, Thursday

    Time Temperature Precipitation Wind Pressure Humidity
    00:00 +5°C° 0 mm 3 mps 740 mmHg 64%
    01:00 +5°C° 0 mm 2 mps 740 mmHg 69%
    02:00 +5°C° 0 mm 2 mps 740 mmHg 74%
    03:00 +5°C° 0 mm 1 mps 740 mmHg 79%
    04:00 +5°C° 0 mm 1 mps 740 mmHg 80%
    05:00 +5°C° 0 mm 1 mps 740 mmHg 81%
    06:00 +5°C° 0 mm 1 mps 740 mmHg 82%
    07:00 +7°C° 0 mm 1 mps 740 mmHg 73%
    08:00 +9°C° 0 mm 1 mps 739 mmHg 63%
    09:00 +12°C° 0 mm 1 mps 739 mmHg 53%
    10:00 +13°C° 0 mm 1 mps 738 mmHg 48%
    11:00 +14°C° 0 mm 2 mps 737 mmHg 44%
    12:00 +16°C° 0 mm 2 mps 736 mmHg 39%
    13:00 +16°C° 0 mm 2 mps 736 mmHg 37%
    14:00 +17°C° 0 mm 2 mps 735 mmHg 35%
    15:00 +18°C° 0 mm 2 mps 734 mmHg 33%
    16:00 +16°C° 0 mm 2 mps 734 mmHg 37%
    17:00 +14°C° 0 mm 2 mps 734 mmHg 41%
    18:00 +12°C° 0 mm 2 mps 734 mmHg 45%
    19:00 +10°C° 0 mm 2 mps 734 mmHg 42%
    20:00 +10°C° 0 mm 2 mps 735 mmHg 40%
    21:00 +9°C° 0 mm 2 mps 735 mmHg 38%
    22:00 +9°C° 0 mm 2 mps 735 mmHg 38%
    23:00 +9°C° 0 mm 2 mps 735 mmHg 38%

    Tomorrow, 31 March, Friday

    Time Temperature Precipitation Wind Pressure Humidity
    00:00 +8°C° 0 mm 2 mps 735 mmHg 38%
    01:00 +8°C° 0 mm 2 mps 735 mmHg 39%
    02:00 +8°C° 0 mm 2 mps 735 mmHg 40%
    03:00 +8°C° 0 mm 2 mps 735 mmHg 41%
    04:00 +8°C° 0 mm 2 mps 736 mmHg 42%
    05:00 +7°C° 0 mm 2 mps 736 mmHg 44%
    06:00 +7°C° 0 mm 2 mps 736 mmHg 45%
    07:00 +10°C° 0 mm 2 mps 737 mmHg 39%
    08:00 +14°C° 0 mm 2 mps 737 mmHg 34%
    09:00 +16°C° 0 mm 1 mps 737 mmHg 28%
    10:00 +18°C° 0 mm 1 mps 737 mmHg 27%
    11:00 +19°C° 0 mm 1 mps 738 mmHg 25%
    12:00 +20°C° 0 mm 1 mps 738 mmHg 23%
    13:00 +19°C° 0 mm 2 mps 738 mmHg 24%
    14:00 +18°C° 0 mm 2 mps 738 mmHg 25%
    15:00 +18°C° 0 mm 3 mps 738 mmHg 26%
    16:00 +17°C° 0 mm 3 mps 738 mmHg 33%
    17:00 +14°C° 0 mm 3 mps 739 mmHg 39%
    18:00 +12°C° 0 mm 3 mps 739 mmHg 45%
    19:00 +11°C° 0.2 mm 3 mps 740 mmHg 55%
    20:00 +10°C° 0.2 mm 4 mps 740 mmHg 64%
    21:00 +8°C° 0.2 mm 5 mps 741 mmHg 74%
    22:00 +7°C° 0.3 mm 4 mps 741 mmHg 78%
    23:00 +7°C° 0.3 mm 4 mps 741 mmHg 81%

    Day after tomorrow, 1 April, Saturday

    Time Temperature Precipitation Wind Pressure Humidity
    00:00 +6°C° 0.3 mm 4 mps 741 mmHg 85%
    01:00 +6°C° 0.2 mm 4 mps 740 mmHg 86%
    02:00 +5°C° 0.2 mm 3 mps 740 mmHg 87%
    03:00 +5°C° 0.2 mm 3 mps 740 mmHg 88%
    04:00 +5°C° 0.1 mm 3 mps 740 mmHg 88%
    05:00 +4°C° 0.1 mm 3 mps 740 mmHg 87%
    06:00 +4°C° 0.1 mm 3 mps 740 mmHg 87%
    07:00 +5°C° 0.1 mm 3 mps 740 mmHg 83%
    08:00 +7°C° 0.1 mm 3 mps 740 mmHg 78%
    09:00 +8°C° 0.1 mm 3 mps 740 mmHg 74%
    10:00 +8°C° 0.1 mm 3 mps 739 mmHg 72%
    11:00 +9°C° 0.1 mm 3 mps 739 mmHg 69%
    12:00 +10°C° 0.1 mm 3 mps 739 mmHg 67%
    13:00 +10°C° 0.1 mm 3 mps 738 mmHg 68%
    14:00 +10°C° 0.1 mm 2 mps 738 mmHg 68%
    15:00 +10°C° 0.1 mm 2 mps 737 mmHg 69%
    16:00 +9°C° 0.1 mm 2 mps 737 mmHg 73%
    17:00 +8°C° 0.1 mm 2 mps 738 mmHg 77%
    18:00 +7°C° 0.1 mm 2 mps 738 mmHg 82%
    19:00 +6°C° 0 mm 2 mps 738 mmHg 86%
    20:00 +6°C° 0 mm 2 mps 739 mmHg 90%
    21:00 +5°C° 0 mm 2 mps 739 mmHg 94%
    22:00 +4°C° 0 mm 2 mps 739 mmHg 94%
    23:00 +4°C° 0 mm 2 mps 739 mmHg 94%

    2 April, Sunday

    Time Temperature Precipitation Wind Pressure Humidity
    00:00 +4°C° 0 mm 2 mps 739 mmHg 95%
    01:00 +5°C° 0 mm 1 mps 740 mmHg 94%
    02:00 +4°C° 0 mm 1 mps 740 mmHg 94%
    03:00 +4°C° 0 mm 1 mps 740 mmHg 94%
    04:00 +4°C° 0 mm 1 mps 740 mmHg 93%
    05:00 +4°C° 0 mm 1 mps 741 mmHg 93%
    06:00 +4°C° 0 mm 1 mps 741 mmHg 92%
    07:00 +5°C° 0.1 mm 2 mps 741 mmHg 85%
    08:00 +6°C° 0.1 mm 2 mps 742 mmHg 79%
    09:00 +8°C° 0.1 mm 3 mps 742 mmHg 72%
    10:00 +8°C° 0.2 mm 3 mps 742 mmHg 72%
    11:00 +8°C° 0.2 mm 3 mps 743 mmHg 72%
    12:00 +7°C° 0.2 mm 4 mps 743 mmHg 72%
    13:00 +8°C° 0.1 mm 4 mps 742 mmHg 70%
    14:00 +8°C° 0.1 mm 4 mps 742 mmHg 69%
    15:00 +8°C° 0.1 mm 4 mps 742 mmHg 67%
    16:00 +8°C° 0.1 mm 3 mps 743 mmHg 72%
    17:00 +7°C° 0.1 mm 3 mps 743 mmHg 77%
    18:00 +5°C° 0.1 mm 3 mps 743 mmHg 82%
    19:00 +6°C° 0 mm 2 mps 743 mmHg 85%
    20:00 +5°C° 0 mm 2 mps 743 mmHg 87%
    21:00 +4°C° 0 mm 2 mps 744 mmHg 89%
    22:00 +3°C° 0 mm 2 mps 743 mmHg 89%
    23:00 +4°C° 0 mm 1 mps 743 mmHg 88%

    3 April, Monday

    Time Temperature Precipitation Wind Pressure Humidity
    00:00 +4°C° 0 mm 1 mps 743 mmHg 87%
    01:00 +3°C° 0 mm 1 mps 743 mmHg 88%
    02:00 +2°C° 0 mm 1 mps 742 mmHg 88%
    03:00 +1°C° 0 mm 1 mps 742 mmHg 89%
    04:00 +1°C° 0 mm 1 mps 742 mmHg 86%
    05:00 +2°C° 0 mm 1 mps 742 mmHg 83%
    06:00 +2°C° 0 mm 1 mps 742 mmHg 80%
    07:00 +4°C° 0 mm 1 mps 741 mmHg 72%
    08:00 +7°C° 0 mm 1 mps 741 mmHg 64%
    09:00 +10°C° 0 mm 1 mps 741 mmHg 56%
    10:00 +11°C° 0 mm 1 mps 741 mmHg 53%
    11:00 +12°C° 0 mm 2 mps 740 mmHg 50%
    12:00 +14°C° 0 mm 2 mps 740 mmHg 47%
    13:00 +14°C° 0 mm 2 mps 739 mmHg 46%
    14:00 +14°C° 0 mm 2 mps 739 mmHg 45%
    15:00 +15°C° 0 mm 2 mps 738 mmHg 44%
    16:00 +13°C° 0 mm 2 mps 738 mmHg 51%
    17:00 +11°C° 0 mm 1 mps 739 mmHg 58%
    18:00 +9°C° 0 mm 1 mps 739 mmHg 65%
    19:00 +8°C° 0 mm 1 mps 739 mmHg 68%
    20:00 +7°C° 0 mm 1 mps 739 mmHg 71%
    21:00 +5°C° 0 mm 2 mps 739 mmHg 75%
    22:00 +5°C° 0 mm 1 mps 739 mmHg 76%
    23:00 +5°C° 0 mm 1 mps 739 mmHg 78%

    4 April, Tuesday

    Time Temperature Precipitation Wind Pressure Humidity
    00:00 +4°C° 0 mm 1 mps 739 mmHg 80%
    01:00 +4°C° 0 mm 1 mps 739 mmHg 80%
    02:00 +4°C° 0 mm 1 mps 739 mmHg 80%
    03:00 +4°C° 0 mm 1 mps 738 mmHg 80%
    04:00 +4°C° 0 mm 1 mps 738 mmHg 77%
    05:00 +4°C° 0 mm 1 mps 738 mmHg 75%
    06:00 +3°C° 0 mm 0 mps 738 mmHg 73%
    07:00 +7°C° 0 mm 1 mps 738 mmHg 64%
    08:00 +10°C° 0 mm 1 mps 738 mmHg 55%
    09:00 +13°C° 0 mm 1 mps 738 mmHg 45%
    10:00 +15°C° 0 mm 1 mps 738 mmHg 42%
    11:00 +16°C° 0 mm 1 mps 738 mmHg 39%
    12:00 +18°C° 0 mm 2 mps 738 mmHg 36%
    13:00 +19°C° 0 mm 1 mps 738 mmHg 36%
    14:00 +20°C° 0 mm 1 mps 737 mmHg 35%
    15:00 +20°C° 0 mm 1 mps 737 mmHg 34%
    16:00 +18°C° 0 mm 1 mps 737 mmHg 41%
    17:00 +14°C° 0 mm 1 mps 738 mmHg 49%
    18:00 +12°C° 0 mm 1 mps 738 mmHg 56%
    19:00 +11°C° 0 mm 1 mps 738 mmHg 59%
    20:00 +10°C° 0 mm 1 mps 738 mmHg 62%
    21:00 +9°C° 0 mm 1 mps 739 mmHg 65%
    22:00 +9°C° 0 mm 1 mps 739 mmHg 67%
    23:00 +8°C° 0 mm 1 mps 739 mmHg 68%
    Show more